When you browse on this site, cookies collect data to enhance your experience and personalize the content and advertising you see.
Visit our Privacy Policy to learn more. By continuing to use the site, you agree to this use of cookies and data.
  • In United Kingdom
  • List of Countries
  • For 7 days
  • Water Temperature
  • Satellite Maps
  • Weather Map
  • Weather Widgets
  • user-avatar
    Login

    Hourly Weather Vasyl'ky

    Today, 26 June, Wednesday

    Time Temperature Precipitation Wind Pressure Humidity
    00:00 +23°C° 0 mm 5 mps 761 mmHg 71%
    01:00 +22°C° 0 mm 5 mps 762 mmHg 70%
    02:00 +22°C° 0 mm 5 mps 762 mmHg 70%
    03:00 +21°C° 0 mm 5 mps 762 mmHg 69%
    04:00 +21°C° 0 mm 5 mps 762 mmHg 69%
    05:00 +20°C° 0 mm 5 mps 762 mmHg 68%
    06:00 +22°C° 0 mm 5 mps 763 mmHg 64%
    07:00 +23°C° 0 mm 6 mps 763 mmHg 59%
    08:00 +24°C° 0 mm 6 mps 763 mmHg 54%
    09:00 +27°C° 0 mm 6 mps 763 mmHg 49%
    10:00 +28°C° 0 mm 6 mps 763 mmHg 44%
    11:00 +29°C° 0 mm 6 mps 763 mmHg 39%
    12:00 +29°C° 0 mm 6 mps 763 mmHg 37%
    13:00 +30°C° 0 mm 6 mps 762 mmHg 36%
    14:00 +30°C° 0 mm 6 mps 762 mmHg 34%
    15:00 +30°C° 0 mm 5 mps 762 mmHg 35%
    16:00 +30°C° 0 mm 5 mps 762 mmHg 35%
    17:00 +30°C° 0 mm 5 mps 761 mmHg 36%
    18:00 +28°C° 0 mm 4 mps 761 mmHg 42%
    19:00 +26°C° 0 mm 3 mps 761 mmHg 48%
    20:00 +24°C° 0 mm 3 mps 761 mmHg 54%
    21:00 +23°C° 0 mm 2 mps 761 mmHg 57%
    22:00 +21°C° 0 mm 2 mps 761 mmHg 59%
    23:00 +21°C° 0 mm 2 mps 760 mmHg 62%

    Tomorrow, 27 June, Thursday

    Time Temperature Precipitation Wind Pressure Humidity
    00:00 +20°C° 0 mm 2 mps 760 mmHg 64%
    01:00 +19°C° 0 mm 2 mps 760 mmHg 65%
    02:00 +19°C° 0 mm 2 mps 760 mmHg 67%
    03:00 +20°C° 0 mm 1 mps 759 mmHg 67%
    04:00 +20°C° 0 mm 1 mps 759 mmHg 67%
    05:00 +20°C° 0 mm 1 mps 758 mmHg 67%
    06:00 +22°C° 0 mm 1 mps 758 mmHg 60%
    07:00 +22°C° 0 mm 0 mps 758 mmHg 53%
    08:00 +24°C° 0 mm 0 mps 758 mmHg 46%
    09:00 +28°C° 0 mm 1 mps 757 mmHg 42%
    10:00 +29°C° 0 mm 2 mps 757 mmHg 38%
    11:00 +30°C° 0 mm 3 mps 756 mmHg 34%
    12:00 +31°C° 0 mm 3 mps 755 mmHg 33%
    13:00 +33°C° 0 mm 4 mps 755 mmHg 32%
    14:00 +34°C° 0 mm 5 mps 754 mmHg 31%
    15:00 +33°C° 0 mm 5 mps 753 mmHg 35%
    16:00 +32°C° 0 mm 6 mps 752 mmHg 40%
    17:00 +30°C° 0 mm 6 mps 751 mmHg 44%
    18:00 +29°C° 0.1 mm 6 mps 751 mmHg 51%
    19:00 +27°C° 0.1 mm 6 mps 751 mmHg 57%
    20:00 +24°C° 0.1 mm 7 mps 750 mmHg 64%
    21:00 +24°C° 0.5 mm 6 mps 750 mmHg 69%
    22:00 +23°C° 0.5 mm 6 mps 750 mmHg 74%
    23:00 +23°C° 0.5 mm 6 mps 750 mmHg 80%

    Day after tomorrow, 28 June, Friday

    Time Temperature Precipitation Wind Pressure Humidity
    00:00 +22°C° 0 mm 6 mps 750 mmHg 81%
    01:00 +21°C° 0 mm 6 mps 749 mmHg 81%
    02:00 +21°C° 0 mm 5 mps 749 mmHg 82%
    03:00 +20°C° 0 mm 5 mps 749 mmHg 84%
    04:00 +19°C° 0 mm 5 mps 749 mmHg 86%
    05:00 +19°C° 0 mm 5 mps 749 mmHg 87%
    06:00 +20°C° 0 mm 6 mps 749 mmHg 79%
    07:00 +21°C° 0 mm 6 mps 750 mmHg 72%
    08:00 +22°C° 0 mm 6 mps 750 mmHg 64%
    09:00 +23°C° 0 mm 6 mps 750 mmHg 58%
    10:00 +24°C° 0 mm 7 mps 750 mmHg 51%
    11:00 +26°C° 0 mm 7 mps 750 mmHg 45%
    12:00 +26°C° 0 mm 7 mps 750 mmHg 42%
    13:00 +26°C° 0 mm 8 mps 750 mmHg 40%
    14:00 +27°C° 0 mm 8 mps 750 mmHg 37%
    15:00 +26°C° 0 mm 8 mps 750 mmHg 38%
    16:00 +24°C° 0 mm 8 mps 750 mmHg 39%
    17:00 +24°C° 0 mm 8 mps 750 mmHg 40%
    18:00 +22°C° 0 mm 7 mps 750 mmHg 46%
    19:00 +21°C° 0 mm 6 mps 751 mmHg 51%
    20:00 +19°C° 0 mm 5 mps 751 mmHg 56%
    21:00 +17°C° 0 mm 5 mps 751 mmHg 59%
    22:00 +17°C° 0 mm 5 mps 751 mmHg 62%
    23:00 +16°C° 0 mm 5 mps 751 mmHg 65%

    29 June, Saturday

    Time Temperature Precipitation Wind Pressure Humidity
    00:00 +15°C° 0 mm 5 mps 751 mmHg 67%
    01:00 +15°C° 0 mm 5 mps 751 mmHg 69%
    02:00 +14°C° 0 mm 5 mps 751 mmHg 71%
    03:00 +14°C° 0 mm 5 mps 752 mmHg 73%
    04:00 +14°C° 0 mm 5 mps 752 mmHg 74%
    05:00 +14°C° 0 mm 5 mps 752 mmHg 75%
    06:00 +15°C° 0 mm 5 mps 752 mmHg 69%
    07:00 +16°C° 0 mm 5 mps 752 mmHg 63%
    08:00 +19°C° 0 mm 6 mps 752 mmHg 57%
    09:00 +20°C° 0.1 mm 6 mps 753 mmHg 52%
    10:00 +21°C° 0.1 mm 7 mps 753 mmHg 47%
    11:00 +22°C° 0.1 mm 7 mps 753 mmHg 42%
    12:00 +22°C° 0 mm 7 mps 753 mmHg 41%
    13:00 +22°C° 0 mm 7 mps 753 mmHg 40%
    14:00 +22°C° 0 mm 7 mps 753 mmHg 39%
    15:00 +22°C° 0 mm 7 mps 753 mmHg 38%
    16:00 +22°C° 0 mm 7 mps 753 mmHg 37%
    17:00 +22°C° 0 mm 8 mps 753 mmHg 35%
    18:00 +20°C° 0 mm 6 mps 753 mmHg 40%
    19:00 +19°C° 0 mm 5 mps 754 mmHg 45%
    20:00 +17°C° 0 mm 4 mps 754 mmHg 50%
    21:00 +15°C° 0 mm 4 mps 754 mmHg 53%
    22:00 +14°C° 0 mm 3 mps 754 mmHg 57%
    23:00 +13°C° 0 mm 3 mps 755 mmHg 60%

    30 June, Sunday

    Time Temperature Precipitation Wind Pressure Humidity
    00:00 +13°C° 0 mm 3 mps 755 mmHg 64%
    01:00 +12°C° 0 mm 3 mps 755 mmHg 68%
    02:00 +12°C° 0 mm 3 mps 755 mmHg 71%
    03:00 +12°C° 0 mm 3 mps 755 mmHg 73%
    04:00 +12°C° 0 mm 3 mps 755 mmHg 75%
    05:00 +11°C° 0 mm 3 mps 755 mmHg 77%
    06:00 +14°C° 0 mm 4 mps 755 mmHg 68%
    07:00 +17°C° 0 mm 4 mps 755 mmHg 59%
    08:00 +19°C° 0 mm 5 mps 755 mmHg 50%
    09:00 +20°C° 0 mm 5 mps 755 mmHg 44%
    10:00 +22°C° 0 mm 5 mps 755 mmHg 39%
    11:00 +23°C° 0 mm 5 mps 756 mmHg 34%
    12:00 +23°C° 0 mm 5 mps 755 mmHg 35%
    13:00 +22°C° 0 mm 5 mps 755 mmHg 36%
    14:00 +22°C° 0 mm 5 mps 755 mmHg 37%
    15:00 +22°C° 0 mm 5 mps 755 mmHg 37%
    16:00 +22°C° 0 mm 5 mps 756 mmHg 37%
    17:00 +22°C° 0 mm 5 mps 756 mmHg 37%
    18:00 +21°C° 0 mm 4 mps 756 mmHg 40%
    19:00 +19°C° 0 mm 4 mps 756 mmHg 44%
    20:00 +17°C° 0 mm 3 mps 757 mmHg 48%
    21:00 +17°C° 0 mm 3 mps 757 mmHg 50%
    22:00 +16°C° 0 mm 3 mps 757 mmHg 52%
    23:00 +14°C° 0 mm 3 mps 757 mmHg 54%

    1 July, Monday

    Time Temperature Precipitation Wind Pressure Humidity
    00:00 +14°C° 0 mm 2 mps 757 mmHg 57%
    01:00 +14°C° 0 mm 2 mps 757 mmHg 59%
    02:00 +13°C° 0 mm 2 mps 757 mmHg 61%
    03:00 +14°C° 0 mm 2 mps 758 mmHg 62%
    04:00 +14°C° 0 mm 2 mps 758 mmHg 63%
    05:00 +14°C° 0 mm 2 mps 758 mmHg 63%
    06:00 +16°C° 0 mm 2 mps 758 mmHg 57%
    07:00 +18°C° 0 mm 2 mps 758 mmHg 50%
    08:00 +21°C° 0 mm 2 mps 758 mmHg 43%
    09:00 +23°C° 0 mm 2 mps 758 mmHg 41%
    10:00 +24°C° 0 mm 3 mps 758 mmHg 39%
    11:00 +25°C° 0 mm 3 mps 758 mmHg 37%
    12:00 +25°C° 0 mm 3 mps 757 mmHg 37%
    13:00 +26°C° 0 mm 3 mps 757 mmHg 36%
    14:00 +26°C° 0 mm 2 mps 757 mmHg 35%
    15:00 +26°C° 0 mm 2 mps 757 mmHg 37%
    16:00 +26°C° 0 mm 2 mps 756 mmHg 38%
    17:00 +26°C° 0 mm 2 mps 756 mmHg 40%
    18:00 +25°C° 0 mm 3 mps 756 mmHg 45%
    19:00 +24°C° 0 mm 3 mps 756 mmHg 51%
    20:00 +22°C° 0 mm 3 mps 756 mmHg 57%
    21:00 +21°C° 0 mm 3 mps 756 mmHg 64%
    22:00 +20°C° 0 mm 3 mps 756 mmHg 71%
    23:00 +19°C° 0 mm 3 mps 756 mmHg 78%
    Show more